Location: Unspecified
(0.0000°N, 0.0000°E)
Time: 04:07:47
(UTC+00:00)

S-56A Canister/Altair - All Passes

Search period start: 01 February 2015 00:00
Search period end: 11 February 2015 00:00
Orbit: 634 x 2501 km, 38.9° (Epoch: 30 January)

Date Brightness Start Highest point End Pass type
(mag) Time Alt. Az. Time Alt. Az. Time Alt. Az.
01 Feb - 08:22:27 10° SW 08:26:49 54° SE 08:32:07 10° ENE daylight
01 Feb - 10:27:34 10° WNW 10:31:16 18° NNW 10:35:34 10° N daylight
01 Feb - 16:55:15 10° N 17:00:54 14° NNE 17:08:00 10° ENE daylight
01 Feb - 18:56:20 10° NNW 19:10:01 45° NE 19:23:19 10° ESE visible
01 Feb - 21:02:09 10° NW 21:17:19 70° SW 21:29:32 10° SE visible
01 Feb - 23:14:29 10° W 23:23:52 20° SW 23:30:55 10° S visible
02 Feb - 07:50:37 10° SSW 07:54:46 40° SE 07:59:30 10° ENE daylight
02 Feb - 09:55:07 10° W 09:58:52 20° NNW 10:03:19 10° NNE daylight
02 Feb - 16:24:29 10° NNE 16:27:30 11° NNE 16:31:54 10° NE daylight
02 Feb - 18:23:44 10° NNW 18:36:43 40° NE 18:50:03 10° ESE visible
02 Feb - 20:28:53 10° NW 20:44:12 79° SW 20:57:07 10° SE visible
02 Feb - 22:39:56 10° W 22:50:55 25° SW 22:59:19 10° S visible
03 Feb - 07:18:49 10° SSW 07:22:42 29° SE 07:26:53 10° ENE daylight
03 Feb - 09:22:42 10° W 09:26:33 24° NW 09:31:06 10° NNE daylight
03 Feb - 17:51:16 10° NNW 18:03:25 35° NE 18:16:34 10° E daylight
03 Feb - 19:55:46 10° NW 20:11:01 87° SW 20:24:34 10° SE visible
03 Feb - 22:05:41 10° W 22:17:55 30° SW 22:27:30 10° SSE visible
04 Feb - 06:47:04 10° SSW 06:50:36 22° SE 06:54:13 10° E daylight
04 Feb - 08:50:21 10° W 08:54:19 29° NW 08:58:56 10° NNE daylight
04 Feb - 17:18:57 10° NNW 17:30:08 31° NE 17:42:50 10° E daylight
04 Feb - 19:22:47 10° NW 19:37:48 85° NE 19:51:53 10° SE visible
04 Feb - 21:31:40 10° W 21:44:51 35° SW 21:55:31 10° SSE visible
05 Feb - 06:15:23 10° S 06:18:25 17° SE 06:21:29 10° E daylight
05 Feb - 08:18:03 10° WSW 08:22:09 36° NW 08:26:47 10° NNE daylight
05 Feb - 16:46:48 10° NNW 16:56:53 26° NE 17:08:51 10° E daylight
05 Feb - 18:49:57 10° NW 19:04:33 77° NE 19:19:03 10° SE visible
05 Feb - 20:57:53 10° WNW 21:11:43 40° SW 21:23:22 10° SSE visible
06 Feb - 05:43:48 10° S 05:46:11 14° SE 05:48:36 10° ESE visible
06 Feb - 07:45:46 10° WSW 07:50:02 46° NW 07:54:40 10° NNE daylight
06 Feb - 16:14:50 10° N 16:23:40 22° NE 16:34:34 10° E daylight
06 Feb - 18:17:14 10° NW 18:31:18 69° NE 18:46:03 10° ESE visible
06 Feb - 20:24:18 10° WNW 20:38:33 46° SW 20:51:04 10° SSE visible
06 Feb - 22:41:16 10° SW 22:46:36 12° SSW 22:50:24 10° SSW visible
07 Feb - 05:12:30 10° SSE 05:13:52 11° SSE 05:15:24 10° SE visible
07 Feb - 07:13:30 10° WSW 07:17:58 62° NW 07:22:32 10° NE daylight
07 Feb - 15:43:06 10° N 15:50:30 19° NE 15:59:56 10° ENE daylight
07 Feb - 17:44:40 10° NW 17:58:05 61° NE 18:12:54 10° ESE daylight
07 Feb - 19:50:54 10° WNW 20:05:19 52° SW 20:18:38 10° SSE visible
07 Feb - 22:05:28 10° WSW 22:13:24 15° SSW 22:19:33 10° S visible
08 Feb - 06:41:14 10° SW 06:45:56 84° NW 06:50:25 10° NE daylight
08 Feb - 15:11:46 10° N 15:17:22 15° NE 15:24:50 10° ENE daylight
08 Feb - 17:12:13 10° NNW 17:24:53 54° NE 17:39:36 10° ESE daylight
08 Feb - 19:17:41 10° WNW 19:32:04 59° SW 19:46:05 10° SE visible
08 Feb - 21:30:28 10° WSW 21:40:10 19° SSW 21:48:01 10° S visible
09 Feb - 06:08:58 10° SW 06:13:54 73° SE 06:18:18 10° NE daylight
09 Feb - 14:41:17 10° NNE 14:44:18 12° NE 14:48:45 10° NE daylight
09 Feb - 16:39:54 10° NNW 16:51:44 47° NE 17:06:06 10° ESE daylight
09 Feb - 18:44:39 10° WNW 18:58:49 66° SW 19:13:24 10° SE visible
09 Feb - 20:55:56 10° W 21:06:53 22° SW 21:16:09 10° S visible
10 Feb - 05:36:40 10° SW 05:41:49 55° SE 05:46:10 10° ENE visible
10 Feb - 07:44:02 10° WNW 07:45:35 11° NW 07:46:56 10° NNW daylight
10 Feb - 16:07:43 10° NNW 16:18:40 41° NE 16:32:26 10° ESE daylight
10 Feb - 18:11:47 10° NW 18:25:34 74° SW 18:40:35 10° SE visible
10 Feb - 20:21:44 10° W 20:33:35 26° SW 20:44:03 10° SSE visible
